Regional Weather Roundup
Issued by NWS

Home | Current Version | Previous Version | Graphics & Text | Print | Product List | Glossary Off
Versions: 1 2 3 4 5 6 7 8 9 10 11 12 13 14 15 16 17 18 19 20 21 22 23 24 25 26 27 28 29 30 31 32 33 34 35 36 37 38 39 40 41 42 43 44 45 46 47 48 49 50

000
ASUS43 KMKX 140411
RWRWI

WISCONSIN REGIONAL WEATHER ROUNDUP
NATIONAL WEATHER SERVICE MILWAUKEE/SULLIVAN WI
1100 PM CDT SUN JUL 13 2014

NOTE: "FAIR" INDICATES FEW OR NO CLOUDS BELOW 12,000 FEET WITH NO
SIGNIFICANT WEATHER AND/OR OBSTRUCTIONS TO VISIBILITY.

WIZ001-002-006>008-014>016-023>028-140500-
NORTHWEST WISCONSIN

CITY           SKY/WX    TMP DP  RH WIND       PRES   REMARKS
SUPERIOR ARPT  CLOUDY    58  48  69 NW8       29.87S
ASHLAND        CLOUDY    60  50  69 N9        29.87R
HAYWARD        CLOUDY    59  52  77 CALM      29.88S
SIREN          CLOUDY    61  51  69 NW3       29.88S
RICE LAKE      CLOUDY    60  52  75 CALM      29.90S
LADYSMITH      MOCLDY    62  52  70 SW3       29.90S
EAU CLAIRE     CLEAR     60  55  83 S5        29.89S
MENOMONIE      PTCLDY    61  54  76 SW5       29.90S
NEW RICHMOND   PTCLDY    60  51  74 SW5       29.90F
OSCEOLA        CLOUDY    60  53  78 SW3       29.91F
$$

WIZ003>005-009-010-017-018-140500-
NORTH CENTRAL WISCONSIN

CITY           SKY/WX    TMP DP  RH WIND       PRES   REMARKS
WOODRUFF       CLOUDY    59  49  69 CALM      29.87F
RHINELANDER    PTCLDY    56  50  80 W6        29.88S
EAGLE RIVER    CLOUDY    57  48  72 CALM      29.87R
LAND O LAKES   CLOUDY    58  51  77 CALM      29.87S
PHILLIPS       CLOUDY    60  51  72 CALM      29.88S
TOMAHAWK       CLOUDY    58  51  77 CALM      29.89S
MEDFORD        CLOUDY    58  54  85 CALM      29.90S
MERRILL        CLEAR     58  51  79 CALM      29.88F
$$

WIZ029-030-035-036-043>047-140500-
CENTRAL WISCONSIN

CITY           SKY/WX    TMP DP  RH WIND       PRES   REMARKS
WAUSAU         CLEAR     64  50  60 SW5       29.87S
MOSINEE        MOCLDY    59  54  82 SW5       29.90S
MARSHFIELD     MOCLDY    61  52  72 W5        29.90R
STEVENS POINT  CLOUDY    60  51  72 CALM      29.90S
WAUPACA        CLEAR     59  53  79 CALM      29.89F
WAUTOMA        CLEAR     56  53  89 CALM      29.90F
WISC RAPIDS    CLEAR     57  52  83 S3        29.90F
CAMP DOUGLAS   CLEAR     56  56 100 S2        29.90S
$$

WIZ011>013-019>022-031-037>040-048>050-140500-
NORTHEAST WISCONSIN

CITY           SKY/WX    TMP DP  RH WIND       PRES   REMARKS
ANTIGO         CLEAR     54  50  86 SW6       29.89S
STURGEON BAY   CLEAR     61  48  63 CALM      29.87F
GREEN BAY      CLEAR     61  52  72 SW3       29.87F
MANITOWOC      CLEAR     60  51  72 W3        29.88F
APPLETON       CLEAR     64  46  52 SW5       29.89F
CLINTONVILLE   CLEAR     57  50  77 CALM      29.88S
OSHKOSH        CLEAR     64  51  62 SW6       29.89S
$$

WIZ032>034-041-042-053>061-140500-
SOUTHWEST WISCONSIN

CITY           SKY/WX    TMP DP  RH WIND       PRES   REMARKS
LA CROSSE      PTCLDY    67  58  72 S6        29.90R
SPARTA         CLOUDY    58  55  89 CALM      29.91S
VIROQUA        FAIR      61  53  75 CALM      29.93S
BOSCOBEL       PTCLDY    60  56  86 CALM      29.92S
PRAIRIE DU CHI PTCLDY    62  58  86 E3        29.91F
PLATTEVILLE    FAIR      65  55  69 CALM      29.93F
$$

WIZ056-057-062-063-064-067-068-140500-
SOUTH CENTRAL WISCONSIN

CITY           SKY/WX    TMP DP  RH WIND       PRES   REMARKS
BARABOO/DELLS  PTCLDY    58  53  84 CALM      29.91F
LONE ROCK      CLEAR     62  55  77 CALM      29.92S
WATERTOWN      CLEAR     62  56  81 CALM      29.91S
MADISON        CLEAR     62  58  86 CALM      29.91F
MIDDLETON      FAIR      61  55  81 CALM      29.93S
MONROE         CLEAR     68  50  52 NW7       29.93S
JANESVILLE     CLEAR     63  52  67 W3        29.92S
$$

WIZ051-052-058>065-066-070>072-140500-
SOUTHEAST WISCONSIN

CITY           SKY/WX    TMP DP  RH WIND       PRES   REMARKS
MILWAUKEE      PTCLDY    72  50  45 NW5       29.90S
WAUKESHA       PTCLDY    64  54  68 W3        29.92S
MILWAUKEE/TIMM MOCLDY    66  50  55 NW5       29.90F
RACINE         MOCLDY    70  61  73 NW5       29.91S
BURLINGTON     CLEAR     63  60  91 NW3       29.92R
KENOSHA        PTCLDY    66  62  87 CALM      29.91R
FOND DU LAC    CLEAR     57  53  86 SW3       29.90S
SHEBOYGAN      CLEAR     58  54  86 W3        29.89S
WEST BEND      CLEAR     61  50  67 CALM      29.91S
JUNEAU         CLEAR     60  40  47 CALM      29.92S
$$

LSZ147-162-140500-
LAKE SUPERIOR

STATION/POSITION TIME  TEMP    WIND        PRES    WAVE
                       AIR SEA DIR/SP/G            HT/PER
                 (UTC) (F)     (DEG/KT/KT) (MB)    (FT/S)
W MID LAKE BUOY  0350   44 38  220/  8/  8 1009.7F   1/ 4
PORT WING        0300   57     330/ 10/ 19 1011.5R
SAXON HARBOR     0300           CALM  /  4 1010.8R
$$

LMZ867-665-643>646-140500-
LAKE MICHIGAN

STATION/POSITION TIME  TEMP    WIND        PRES    WAVE
                       AIR SEA DIR/SP/G            HT/PER
                 (UTC) (F)     (DEG/KT/KT) (MB)    (FT/S)
N MID LAKE BUOY  0350   61 57  210/ 10/ 12 1010.2S   1
NORTHPORT PIER   0300   62     180/  4/  8 1010.8R
KEWAUNEE LAKESHO 0300   65     300/  3/  3 1012.4R
SHEBOYGAN LAKESH 0400   70     280/  4/  5 1011.9F
PORT WASHINGTON  0340   69     290/  5/  6 1012.9R
MILWAUKEE LAKESH 0300   74     310/  6/  9   N/A
S MID LAKE BUOY  0350   66 65  340/  4/  4 1011.9R   1
KENOSHA   LAKESH 0400   71     350/  3/  5   N/A
$$

TC  - TEMPERATURE IN CELSIUS
VSB - VISIBILITY IN STATUTE MILES
WCI - WIND CHILL INDEX
HX  - HEAT INDEX



USA.gov is the U.S. government's official web portal to all federal, state and local government web resources and services.